Location: Trout Lake
(45.9980°N, 121.5270°W)
Time: 18:52:38
(UTC-08:00)

COSMO-SKYMED 1 - Pass Details

Date: 06 December 2023
Orbit: 621 x 623 km, 97.9° (Epoch: 22 February)

Event Time Altitude Azimuth Distance (km) Brightness Sun altitude
Exits shadow 17:52:38 18° 32° (NNE) 1,558 4.2 -15.2°
Maximum altitude 17:55:37 44° 99° (E) 862 2.9 -15.7°
Drops below altitude 10° 17:59:46 10° 172° (S) 1,989 5.2 -16.4°
Sets 18:02:02 0° 179° (S) 2,890 6.2 -16.8°
